TimeEST,TemperatureF,Dew PointF,Humidity,Sea Level PressureIn,VisibilityMPH,Wind Direction,Wind SpeedMPH,Gust SpeedMPH,PrecipitationIn,Events,Conditions,WindDirDegrees,DateUTC
12:53 AM,-18.4,-18.4,100,-9999,0.1,WNW,35.7,-,N/A,Fog-Snow,Light Freezing Fog,300,2014-02-28 05:53:00
1:52 AM,-20.2,-20.2,100,-9999,0.1,WNW,39.1,-,N/A,Fog-Snow,Light Freezing Fog,290,2014-02-28 06:52:00
2:54 AM,-20.2,-20.2,100,-9999,0.1,WNW,38.0,-,N/A,Fog-Snow,Light Freezing Fog,300,2014-02-28 07:54:00
3:53 AM,-20.2,-20.2,100,-9999,0.1,WNW,41.4,48.3,N/A,Fog,Light Freezing Fog,300,2014-02-28 08:53:00
4:53 AM,-20.2,-20.2,100,-9999,0.1,WNW,40.3,-,N/A,Fog-Snow,Light Freezing Fog,300,2014-02-28 09:53:00
5:50 AM,-20.2,-20.2,100,-9999,0.1,WNW,42.6,-,N/A,Fog-Snow,Light Freezing Fog,300,2014-02-28 10:50:00
6:48 AM,-22.0,-22.0,100,-9999,0.1,WNW,52.9,57.5,N/A,Fog-Snow,Light Freezing Fog,300,2014-02-28 11:48:00
7:54 AM,-20.2,-20.2,100,-9999,0.1,WNW,52.9,70.2,N/A,Fog-Snow,Light Freezing Fog,300,2014-02-28 12:54:00
8:50 AM,-20.2,-20.2,100,-9999,0.1,WNW,51.8,-,N/A,Fog-Snow,Light Freezing Fog,290,2014-02-28 13:50:00
9:50 AM,-18.4,-18.4,100,-9999,0.1,WNW,48.3,54.1,N/A,Fog-Snow,Light Freezing Fog,290,2014-02-28 14:50:00
10:53 AM,-16.6,-16.6,100,-9999,0.0,WNW,42.6,50.6,N/A,Fog-Snow,Light Freezing Fog,290,2014-02-28 15:53:00
11:48 AM,-14.8,-14.8,100,-9999,0.0,WNW,39.1,-,N/A,Fog,Light Freezing Fog,290,2014-02-28 16:48:00
12:50 PM,-13.0,-13.0,100,-9999,0.1,WNW,40.3,-,N/A,Fog,Light Freezing Fog,290,2014-02-28 17:50:00
1:51 PM,-13.0,-13.0,100,-9999,0.1,WNW,46.0,52.9,N/A,Fog,Light Freezing Fog,290,2014-02-28 18:51:00
2:51 PM,-13.0,-16.6,84,-9999,70.0,WNW,42.6,-,N/A,,Partly Cloudy,290,2014-02-28 19:51:00
3:55 PM,-13.0,-20.2,70,-9999,75.0,WNW,40.3,-,N/A,,Partly Cloudy,300,2014-02-28 20:55:00
4:56 PM,-13.0,-22.0,64,-9999,75.0,WNW,36.8,-,N/A,,Partly Cloudy,290,2014-02-28 21:56:00
5:59 PM,-14.8,-25.6,58,-9999,80.0,WNW,35.7,-,N/A,,Partly Cloudy,290,2014-02-28 22:59:00
6:52 PM,-11.2,-29.2,41,-9999,90.0,WNW,36.8,-,N/A,,Partly Cloudy,300,2014-02-28 23:52:00
7:59 PM,-11.2,-27.4,45,-9999,90.0,WNW,32.2,-,N/A,,Clear,300,2014-03-01 00:59:00
8:57 PM,-11.2,-23.8,54,-9999,90.0,WNW,27.6,-,N/A,,Clear,300,2014-03-01 01:57:00
9:58 PM,-5.8,-31.0,29,-9999,90.0,WNW,32.2,-,N/A,,Clear,290,2014-03-01 02:58:00
10:54 PM,-4.0,-31.0,26,-9999,90.0,West,35.7,-,N/A,,Partly Cloudy,280,2014-03-01 03:54:00
11:54 PM,-5.8,-36.4,22,-9999,90.0,West,32.2,-,N/A,,Partly Cloudy,260,2014-03-01 04:54:00